Notices

What's New in latest Release from April 7th, 2021:

- Updated Glossary, including Speed of Maximum Gust, and Total Hourly Precipitation

- Updated national and regional climate services offices contacts and prices information

- Addition of station inventory lists for 1981-2010, 1971-2000, and 1961-1990 Normals.

If you haven't already, please take our survey and provide feedback about our website: https://eccc.sondage-survey.ca/f/LanguageSelection.aspx?s=442ca660-fcf1-47c0-95a9-59707d6fd709

Hourly Data Report for November 27, 2019

CARBERRY CS
MANITOBA
Current Station Operator: ECCC - MSC

49°54'20.900" N
99°21'26.800" W
383.50 m
5010547
71170
WZE

Download Data

Hourly Data (November 2019)
Hourly Data Report for November 27, 2019
TIME
LST
Temp Definition
°C
Dew Point Definition
°C
Rel Hum Definition
%
Precip. Amount Definition
mm

Wind Dir Definition
10's deg

Wind Spd Definition
km/h
Visibility Definition
km
Stn Press Definition
kPa
Hmdx Definition


Wind Chill Definition


Weather Definition


00:00 -5.9 -7.6 88 0.0 2 11   97.28   -11 LegendNANA
01:00 -5.7 -7.2 89 0.0 2 10   97.35   -10 LegendNANA
02:00 -8.4 -9.0 95 0.0 36 11   97.40   -14 LegendNANA
03:00 -6.3 -7.4 92 0.0 36 8   97.43   -10 LegendNANA
04:00 -5.0 -6.6 89 0.0 1 11   97.48   -10 LegendNANA
05:00 -5.2 -6.6 90 0.0 36 12   97.53   -10 LegendNANA
06:00 -6.4 -7.9 89 0.0 35 9   97.56   -11 LegendNANA
07:00 -6.4 -7.6 91 0.0 36 7   97.61   -10 LegendNANA
08:00 -7.1 -7.9 94 0.0 36 12   97.69   -12 LegendNANA
09:00 -7.0 -7.5 96 0.0 36 11   97.79   -12 LegendNANA
10:00 -6.2 -8.2 86 0.0 35 12   97.90   -11 LegendNANA
11:00 -6.0 -8.1 85 0.0 36 14   97.97   -12 LegendNANA
12:00 -5.9 -8.0 85 0.0 35 13   98.02   -11 LegendNANA
13:00 -5.7 -8.5 81 0.0 1 14   98.05   -11 LegendNANA
14:00 -5.6 -8.6 79 0.0 36 14   98.09   -11 LegendNANA
15:00 -5.5 -8.6 79 0.0 1 9   98.19   -10 LegendNANA
16:00 -5.8 -9.1 78 0.0 1 13   98.26   -11 LegendNANA
17:00 -5.8 -8.8 79 0.0 2 11   98.27   -11 LegendNANA
18:00 -5.6 -9.1 76 0.0 1 8   98.39   -9 LegendNANA
19:00 -5.7 -8.6 80 0.0 2 8   98.46   -9 LegendNANA
20:00 -5.6 -8.9 77 0.0 5 9   98.50   -10 LegendNANA
21:00 -5.8 -9.0 78 0.0 5 7   98.53   -9 LegendNANA
22:00 -5.8 -9.7 74 0.0 5 12   98.62   -11 LegendNANA
23:00 -5.7 -9.9 72 0.0 8 6   98.76   -9 LegendNANA

Notes on Data Quality.

Legend

  • E = Estimated
  • M = Missing
  • NA = Not Available*
  • [empty] = Indicates an unobserved value
Date modified: